Location: Newark
(37.0133°S, 81.3511°E)
Time: 05:43:25
(UTC+00:00)

LightSail 2 - Visible Passes

Search period start: 20 January 2020 00:00
Search period end: 30 January 2020 00:00
Orbit: 703 x 720 km, 24.0° (Epoch: 19 January)

Date Brightness Start Highest point End Pass type
(mag) Time Alt. Az. Time Alt. Az. Time Alt. Az.
23 Jan 7.1 23:10:24 10° NNW 23:13:21 15° N 23:16:18 10° NE visible
24 Jan 7.1 22:13:52 12° N 22:15:05 13° NNE 22:17:29 10° NE visible
25 Jan 6.9 22:58:08 10° NW 23:01:33 18° N 23:04:58 10° NE visible
26 Jan 6.9 22:02:56 16° N 22:03:15 16° N 22:06:26 10° NE visible
27 Jan 6.8 22:46:57 13° NW 22:49:43 19° N 22:53:17 10° NE visible
28 Jan 6.8 21:52:05 18° NNE 21:52:05 18° NNE 21:54:55 10° NE visible
29 Jan 6.7 22:36:12 16° NNW 22:37:51 18° N 22:41:19 10° NE visible
